2023/01/24 00:00:00, 0.1, 0.8
2023/01/24 00:10:00, 0.2, 0.7
2023/01/24 00:20:00, 0.2, 0.9
2023/01/24 00:30:00, 0.2, 1.0
2023/01/24 00:40:00, 0.2, 1.1
2023/01/24 00:50:00, 0.1, 1.1
2023/01/24 01:00:00, 0.1, 0.8
2023/01/24 01:10:00, 0.2, 0.9
2023/01/24 01:20:00, 0.2, 1.1
2023/01/24 01:30:00, 0.1, 1.0
2023/01/24 01:40:00, 0.1, 1.1
2023/01/24 01:50:00, 0.1, 1.1
2023/01/24 02:00:00, 0.2, 0.9
2023/01/24 02:10:00, 0.1, 1.0
2023/01/24 02:20:00, 0.1, 1.1
2023/01/24 02:30:00, 0.1, 1.1
2023/01/24 02:40:00, 0.1, 1.4
2023/01/24 02:50:00, 0.1, 1.4
2023/01/24 03:00:00, 0.1, 1.4
2023/01/24 03:10:00, 0.2, 1.4
2023/01/24 03:20:00, 0.2, 1.7
2023/01/24 03:30:00, 0.1, 1.5
2023/01/24 03:40:00, 0.1, 1.5
2023/01/24 03:50:00, 0.1, 1.7
2023/01/24 04:00:00, 0.1, 1.4
2023/01/24 04:10:00, 0.1, 1.4
2023/01/24 04:20:00, 0.2, 1.1
2023/01/24 04:30:00, 0.2, 0.9
2023/01/24 04:40:00, 0.1, 0.8
2023/01/24 04:50:00, 0.2, 0.8
2023/01/24 05:00:00, 0.1, 0.6
2023/01/24 05:10:00, 0.1, 0.7
2023/01/24 05:20:00, 0.1, 0.5
2023/01/24 05:30:00, 0.1, 0.4
2023/01/24 05:40:00, 0.1, 0.6
2023/01/24 05:50:00, 0.1, 0.6
2023/01/24 06:00:00, 0.1, 0.5
2023/01/24 06:10:00, 0.1, 0.4
2023/01/24 06:20:00, 0.1, 0.4
2023/01/24 06:30:00, 0.1, 0.4
2023/01/24 06:40:00, 0.1, 0.3
2023/01/24 06:50:00, 0.1,-0.1
2023/01/24 07:00:00, 0.3,-0.3
2023/01/24 07:10:00, 0.3,-0.4
2023/01/24 07:20:00, 0.4,-0.5
2023/01/24 07:30:00, 0.3,-0.9
2023/01/24 07:40:00, 0.3,-0.8
2023/01/24 07:50:00, 0.3,-0.4
2023/01/24 08:00:00, 0.3,-0.3
2023/01/24 08:10:00, 0.4,-0.7
2023/01/24 08:20:00, 0.5,-0.4
2023/01/24 08:30:00, 0.4,-0.6
2023/01/24 08:40:00, 0.4,-0.4
2023/01/24 08:50:00, 0.9,-0.1
2023/01/24 09:00:00, 1.3,-0.6
2023/01/24 09:10:00, 1.9,-0.7
2023/01/24 09:20:00, 2.1,-0.6
2023/01/24 09:30:00, 2.3,-0.7
2023/01/24 09:40:00, 2.8,-0.6
2023/01/24 09:50:00, 3.5,-0.8
2023/01/24 10:00:00, 4.3,-0.8
2023/01/24 10:10:00, 4.7,-0.8
2023/01/24 10:20:00, 5.1,-0.8
2023/01/24 10:30:00, 5.5,-0.9
2023/01/24 10:40:00, 6.0,-1.1
2023/01/24 10:50:00, 7.0,-1.2
2023/01/24 11:00:00, 7.8,-1.4
2023/01/24 11:10:00, 8.8,-1.2
2023/01/24 11:20:00, 9.8,-1.5
2023/01/24 11:30:00,10.1,-1.7
2023/01/24 11:40:00,10.3,-1.7
2023/01/24 11:50:00,11.3,-0.9
2023/01/24 12:00:00,11.7,-1.1
2023/01/24 12:10:00,11.8,-1.1
2023/01/24 12:20:00,12.0,-1.5
2023/01/24 12:30:00,12.0,-1.1
2023/01/24 12:40:00,12.0,-1.3
2023/01/24 12:50:00,12.0,-1.0
2023/01/24 13:00:00,11.9,-1.4
2023/01/24 13:10:00,12.0,-1.1
2023/01/24 13:20:00,12.0,-0.4
2023/01/24 13:30:00,12.0,-1.1
2023/01/24 13:40:00,11.8,-1.0
2023/01/24 13:50:00,12.2, 0.5
2023/01/24 14:00:00,12.7, 0.9
2023/01/24 14:10:00,12.9, 0.0
2023/01/24 14:20:00,12.1,-0.3
2023/01/24 14:30:00,11.7,-2.3
2023/01/24 14:40:00,11.5,-2.8
2023/01/24 14:50:00,11.5,-3.4
2023/01/24 15:00:00,11.5,-3.9
2023/01/24 15:10:00,11.9,-4.3
2023/01/24 15:20:00,12.0,-4.1
2023/01/24 15:30:00,12.4,-4.4
2023/01/24 15:40:00,14.1,-4.5
2023/01/24 15:50:00,16.1,-4.7
2023/01/24 16:00:00,17.8,-4.8
2023/01/24 16:10:00,19.6,-4.9
2023/01/24 16:20:00,21.5,-5.1
2023/01/24 16:30:00,23.1,-4.9
2023/01/24 16:40:00,24.4,-4.9
2023/01/24 16:50:00,25.5,-5.0
2023/01/24 17:00:00,26.4,-5.1
2023/01/24 17:10:00,27.3,-5.0
2023/01/24 17:20:00,27.9,-4.7
2023/01/24 17:30:00,28.6,-5.1
2023/01/24 17:40:00,29.3,-4.9
2023/01/24 17:50:00,30.2,-4.9
2023/01/24 18:00:00,31.5,-5.1
2023/01/24 18:10:00,32.8,-4.9
2023/01/24 18:20:00,33.7,-4.8
2023/01/24 18:30:00,34.9,-5.2
2023/01/24 18:40:00,35.9,-5.4
2023/01/24 18:50:00,36.8,-5.5
2023/01/24 19:00:00,37.5,-5.5
2023/01/24 19:10:00,38.3,-5.6
2023/01/24 19:20:00,38.5,-5.6
2023/01/24 19:30:00,38.7,-5.4
2023/01/24 19:40:00,39.2,-5.5
2023/01/24 19:50:00,40.2,-5.6
2023/01/24 20:00:00,40.9,-5.5
2023/01/24 20:10:00,41.5,-5.9
2023/01/24 20:20:00,42.2,-5.9
2023/01/24 20:30:00,43.1,-6.4
2023/01/24 20:40:00,43.3,-6.0
2023/01/24 20:50:00,43.6,-5.9
2023/01/24 21:00:00,44.1,-6.1
2023/01/24 21:10:00,44.6,-6.0
2023/01/24 21:20:00,45.0,-6.2
2023/01/24 21:30:00,45.5,-6.0
2023/01/24 21:40:00,46.0,-6.5
2023/01/24 21:50:00,46.6,-6.1
2023/01/24 22:00:00,47.2,-6.1
2023/01/24 22:10:00,47.7,-6.4
2023/01/24 22:20:00,47.9,-6.3
2023/01/24 22:30:00,48.1,-6.3
2023/01/24 22:40:00,48.6,-6.3
2023/01/24 22:50:00,48.5,-6.2
2023/01/24 23:00:00,48.9,-6.3
2023/01/24 23:10:00,49.4,-6.4
2023/01/24 23:20:00,49.9,-6.5
2023/01/24 23:30:00,50.3,-6.5
2023/01/24 23:40:00,50.7,-6.5
2023/01/24 23:50:00,51.4,-6.4
